Le nostre stazioni meteo in Italia

Pubblicità
Il mio iltempo24.it
Winterbourne No 2, Gran Bretagna (99062): Temperatura & dewpoint: 01.04.2020 23:00:00 - 07.04.2020 23:00:00 (BST)Winterbourne No 2, Gran Bretagna (99062): Temperatura -20cm & Temperatura -100cm: 01.04.2020 23:00:00 - 07.04.2020 23:00:00 (BST)Winterbourne No 2, Gran Bretagna (99062): precipitazioni: 01.04.2020 23:00:00 - 07.04.2020 23:00:00 (BST)
Data & Tempo tt [°C] td [°C] tt -20cm [°C] tt -100cm [°C] rr [mm]
07.04.2020 23:00:00 10,0 5,1 - - 0,0
07.04.2020 22:00:00 10,6 4,2 - - 0,0
07.04.2020 21:00:00 11,6 3,8 - - 0,0
07.04.2020 20:00:00 13,9 2,7 - - 0,0
07.04.2020 19:00:00 15,4 1,4 - - 0,0
07.04.2020 18:00:00 16,6 1,1 - - 0,0
07.04.2020 17:00:00 17,0 1,0 - - 0,0
07.04.2020 16:00:00 17,3 2,9 - - 0,0
07.04.2020 15:00:00 17,5 3,9 - - 0,0
07.04.2020 14:00:00 16,1 2,9 - - 0,0
07.04.2020 13:00:00 15,1 4,2 - - 0,0
07.04.2020 12:00:00 14,6 3,4 - - 0,0
07.04.2020 11:00:00 13,9 2,8 - - 0,0
07.04.2020 10:00:00 11,1 3,3 8,7 8,0 0,0
07.04.2020 09:00:00 6,5 5,2 - - 0,0
07.04.2020 08:00:00 2,3 2,3 - - 0,0
07.04.2020 07:00:00 0,8 0,5 - - 0,0
07.04.2020 06:00:00 1,0 0,6 - - 0,0
07.04.2020 05:00:00 1,1 0,4 - - 0,0
07.04.2020 04:00:00 2,1 1,3 - - 0,0
07.04.2020 03:00:00 2,3 1,4 - - 0,0
07.04.2020 02:00:00 2,7 1,1 - - 0,0
07.04.2020 01:00:00 4,0 1,4 - - 0,0
07.04.2020 00:00:00 4,8 1,8 - - 0,0
06.04.2020 23:00:00 5,9 1,8 - - 0,0
06.04.2020 22:00:00 7,1 1,5 - - 0,0
06.04.2020 21:00:00 9,5 0,6 - - 0,0
06.04.2020 20:00:00 11,8 0,9 - - 0,0
06.04.2020 19:00:00 12,9 1,2 - - 0,0
06.04.2020 18:00:00 13,3 3,2 - - 0,0
06.04.2020 17:00:00 14,4 4,1 - - 0,0
06.04.2020 16:00:00 13,2 5,6 - - 0,0
06.04.2020 15:00:00 13,6 4,9 - - 0,0
06.04.2020 14:00:00 13,1 4,0 - - 0,2
06.04.2020 13:00:00 13,1 4,3 - - 0,0
06.04.2020 12:00:00 11,3 5,9 - - 0,2
06.04.2020 11:00:00 12,7 4,8 - - 0,0
06.04.2020 10:00:00 11,4 5,8 8,7 7,9 0,0
06.04.2020 09:00:00 10,4 6,3 - - 0,0
06.04.2020 08:00:00 9,8 6,9 - - 0,0
06.04.2020 07:00:00 9,6 7,4 - - 0,0
06.04.2020 06:00:00 9,8 7,6 - - 0,2
06.04.2020 05:00:00 10,7 8,4 - - 0,6
06.04.2020 04:00:00 12,5 11,3 - - 0,4
06.04.2020 03:00:00 12,3 10,5 - - 0,0
06.04.2020 02:00:00 13,2 9,1 - - 0,0
06.04.2020 01:00:00 14,1 6,8 - - 0,0
06.04.2020 00:00:00 13,9 6,2 - - 0,0
05.04.2020 23:00:00 14,3 5,0 - - 0,0
05.04.2020 22:00:00 15,3 4,3 - - 0,0
05.04.2020 21:00:00 15,9 4,5 - - 0,0
05.04.2020 20:00:00 16,3 5,4 - - 0,0
05.04.2020 19:00:00 17,3 5,6 - - 0,0
05.04.2020 18:00:00 19,6 5,3 - - 0,0
05.04.2020 17:00:00 19,2 5,2 - - 0,0
05.04.2020 16:00:00 19,5 4,9 - - 0,0
05.04.2020 15:00:00 18,6 3,8 - - 0,0
05.04.2020 14:00:00 17,5 4,1 - - 0,0
05.04.2020 13:00:00 16,9 5,0 - - 0,0
05.04.2020 12:00:00 15,6 3,3 - - 0,0
05.04.2020 11:00:00 14,6 3,2 - - 0,0
05.04.2020 10:00:00 12,4 3,2 7,9 7,7 0,0
05.04.2020 09:00:00 9,6 2,7 - - 0,0
05.04.2020 08:00:00 7,1 2,6 - - 0,0
05.04.2020 07:00:00 5,6 2,2 - - 0,0
05.04.2020 06:00:00 5,7 2,0 - - 0,0
05.04.2020 05:00:00 5,8 1,7 - - 0,0
05.04.2020 04:00:00 6,7 1,5 - - 0,0
05.04.2020 03:00:00 5,9 0,5 - - 0,0
05.04.2020 02:00:00 5,7 -0,2 - - 0,0
05.04.2020 01:00:00 6,2 0,0 - - 0,0
05.04.2020 00:00:00 6,4 0,6 - - 0,0
04.04.2020 23:00:00 8,2 0,8 - - 0,0
04.04.2020 22:00:00 9,7 0,9 - - 0,0
04.04.2020 21:00:00 10,3 2,4 - - 0,0
04.04.2020 20:00:00 11,8 3,0 - - 0,0
04.04.2020 19:00:00 13,0 2,3 - - 0,0
04.04.2020 18:00:00 13,8 2,4 - - 0,0
04.04.2020 17:00:00 15,7 3,4 - - 0,0
04.04.2020 16:00:00 14,3 5,0 - - 0,0
04.04.2020 15:00:00 13,3 6,1 - - 0,0
04.04.2020 14:00:00 12,3 6,2 - - 0,0
04.04.2020 13:00:00 10,1 6,3 - - 0,0
04.04.2020 12:00:00 7,6 5,4 - - 0,0
04.04.2020 11:00:00 6,6 5,3 - - 0,0
04.04.2020 10:00:00 7,4 5,0 7,7 7,7 0,0
04.04.2020 09:00:00 6,9 5,0 - - 0,0
04.04.2020 08:00:00 4,1 4,1 - - 0,0
04.04.2020 07:00:00 2,6 2,5 - - 0,0
04.04.2020 06:00:00 2,2 1,7 - - 0,0
04.04.2020 05:00:00 2,6 1,8 - - 0,0
04.04.2020 04:00:00 3,8 2,6 - - 0,0
04.04.2020 03:00:00 4,7 3,5 - - 0,0
04.04.2020 02:00:00 4,9 3,3 - - 0,0
04.04.2020 01:00:00 4,8 2,6 - - 0,0
04.04.2020 00:00:00 4,4 2,8 - - 0,0
03.04.2020 23:00:00 3,9 1,9 - - 0,0
03.04.2020 22:00:00 5,1 1,8 - - 0,0
03.04.2020 21:00:00 6,7 2,0 - - 0,0
03.04.2020 20:00:00 9,3 1,7 - - 0,0
03.04.2020 19:00:00 10,8 1,3 - - 0,0
03.04.2020 18:00:00 11,9 1,6 - - 0,0
03.04.2020 17:00:00 11,6 1,5 - - 0,0
03.04.2020 16:00:00 11,8 1,1 - - 0,0
03.04.2020 15:00:00 11,9 0,9 - - 0,0
03.04.2020 14:00:00 10,4 0,3 - - 0,0
03.04.2020 13:00:00 10,0 0,0 - - 0,0
03.04.2020 12:00:00 9,4 0,4 - - 0,0
03.04.2020 11:00:00 8,5 -1,0 - - 0,0
03.04.2020 10:00:00 8,4 1,8 7,7 7,7 0,0
03.04.2020 09:00:00 6,9 2,1 - - 0,0
03.04.2020 08:00:00 6,0 3,3 - - 0,0
03.04.2020 07:00:00 5,5 2,8 - - 0,0
03.04.2020 06:00:00 6,1 2,9 - - 0,0
03.04.2020 05:00:00 6,0 3,7 - - 0,0
03.04.2020 04:00:00 5,5 3,6 - - 0,0
03.04.2020 03:00:00 6,1 3,5 - - 0,0
03.04.2020 02:00:00 6,4 2,9 - - 0,0
03.04.2020 01:00:00 6,7 2,6 - - 0,0
03.04.2020 00:00:00 6,7 2,7 - - 0,0
02.04.2020 23:00:00 6,8 2,6 - - 0,0
02.04.2020 22:00:00 7,5 3,6 - - 0,0
02.04.2020 21:00:00 8,5 4,3 - - 0,0
02.04.2020 20:00:00 9,0 4,7 - - 0,0
02.04.2020 19:00:00 10,1 4,1 - - 0,0
02.04.2020 18:00:00 11,1 4,7 - - 0,0
02.04.2020 17:00:00 12,2 4,2 - - 0,0
02.04.2020 16:00:00 11,8 4,6 - - 0,0
02.04.2020 15:00:00 11,2 5,0 - - 0,0
02.04.2020 14:00:00 10,7 5,2 - - 0,0
02.04.2020 13:00:00 10,0 4,9 - - 0,0
02.04.2020 12:00:00 10,2 4,7 - - 0,0
02.04.2020 11:00:00 10,2 4,1 - - 0,0
02.04.2020 10:00:00 9,5 4,1 7,7 7,7 0,0
02.04.2020 09:00:00 8,4 4,8 - - 0,0
02.04.2020 08:00:00 6,5 4,0 - - 0,0
02.04.2020 07:00:00 5,7 3,1 - - 0,0
02.04.2020 06:00:00 6,2 2,7 - - 0,0
02.04.2020 05:00:00 6,5 2,8 - - 0,0
02.04.2020 04:00:00 6,5 2,4 - - 0,0
02.04.2020 03:00:00 6,5 2,0 - - 0,0
02.04.2020 02:00:00 6,6 2,0 - - 0,0
02.04.2020 01:00:00 6,6 1,8 - - 0,0
02.04.2020 00:00:00 6,5 1,6 - - 0,0
01.04.2020 23:00:00 6,5 1,5 - - 0,0

tt = Temperatura
td = dewpoint
tt -20cm = Temperatura -20cm
tt -100cm = Temperatura -100cm
rr = precipitazioni

Stazioni seguenti

WeatherPro
AMSI
MeteoEarth